| time (UTC) | temp F | wind direction | speed MPH | gust MPH | rain 1hr in | rain 24hr in | rain mn in | humidity % | barometer mb |
| 20260901224343 | 92 | 288 | 7.0 | 10.0 | 0.00 | 0.00 | 0.00 | 31 | 1023.9 |
| 20260901223335 | 92 | 237 | 7.0 | 11.0 | 0.00 | 0.00 | 0.00 | 31 | 1023.8 |
| 20260901222327 | 92 | 231 | 4.0 | 11.0 | 0.00 | 0.00 | 0.00 | 31 | 1023.9 |
| 20260901221343 | 93 | 255 | 6.0 | 13.0 | 0.00 | 0.00 | 0.00 | 30 | 1024.3 |
| 20260901220329 | 91 | 254 | 4.0 | 9.0 | 0.00 | 0.00 | 0.00 | 33 | 1024.3 |
| 20260901215343 | 92 | 303 | 5.0 | 11.0 | 0.00 | 0.00 | 0.00 | 33 | 1024.6 |
| 20260901214335 | 92 | 217 | 1.0 | 11.0 | 0.00 | 0.00 | 0.00 | 31 | 1024.6 |
| 20260901213350 | 91 | 217 | 7.0 | 12.0 | 0.00 | 0.00 | 0.00 | 34 | 1024.8 |
| 20260901212338 | 91 | 316 | 8.0 | 12.0 | 0.00 | 0.00 | 0.00 | 33 | 1025.1 |
| 20260901211329 | 92 | 229 | 3.0 | 11.0 | 0.00 | 0.00 | 0.00 | 33 | 1025.3 |
| 20260901210405 | 91 | 248 | 5.0 | 10.0 | 0.00 | 0.00 | 0.00 | 34 | 1025.3 |
| 20260901205359 | 91 | 279 | 2.0 | 9.0 | 0.00 | 0.11 | 0.00 | 34 | 1025.3 |
| 20260901204328 | 90 | 236 | 6.0 | 14.0 | 0.00 | 0.11 | 0.00 | 34 | 1025.5 |
| 20260901203347 | 89 | 212 | 9.0 | 14.0 | 0.00 | 0.11 | 0.00 | 37 | 1025.7 |
| 20260901202344 | 88 | 296 | 6.0 | 13.0 | 0.00 | 0.11 | 0.00 | 38 | 1025.8 |
| 20260901201336 | 89 | 317 | 4.0 | 9.0 | 0.00 | 0.11 | 0.00 | 38 | 1025.9 |
| 20260901200326 | 89 | 319 | 4.0 | 10.0 | 0.00 | 0.11 | 0.00 | 37 | 1026.0 |
| 20260901195341 | 89 | 302 | 6.0 | 14.0 | 0.00 | 0.15 | 0.00 | 37 | 1026.0 |
| 20260901194338 | 89 | 233 | 6.0 | 11.0 | 0.00 | 0.15 | 0.00 | 37 | 1026.1 |
| 20260901193329 | 88 | 226 | 4.0 | 10.0 | 0.00 | 0.15 | 0.00 | 38 | 1026.4 |
| 20260901192345 | 88 | 327 | 2.0 | 9.0 | 0.00 | 0.15 | 0.00 | 38 | 1026.5 |
| 20260901191336 | 88 | 342 | 2.0 | 8.0 | 0.00 | 0.15 | 0.00 | 38 | 1026.5 |
| 20260901190326 | 88 | 340 | 4.0 | 9.0 | 0.00 | 0.15 | 0.00 | 39 | 1026.6 |
| 20260901185342 | 88 | 211 | 4.0 | 13.0 | 0.00 | 0.15 | 0.00 | 38 | 1026.7 |
| 20260901184331 | 88 | 284 | 6.0 | 9.0 | 0.00 | 0.15 | 0.00 | 40 | 1026.6 |
| 20260901183348 | 88 | 246 | 4.0 | 8.0 | 0.00 | 0.15 | 0.00 | 38 | 1026.7 |
| 20260901182342 | 87 | 239 | 2.0 | 9.0 | 0.00 | 0.15 | 0.00 | 40 | 1026.8 |
| 20260901181334 | 88 | 250 | 3.0 | 9.0 | 0.00 | 0.15 | 0.00 | 39 | 1026.9 |
| 20260901180401 | 88 | 223 | 2.0 | 5.0 | 0.00 | 0.15 | 0.00 | 38 | 1026.9 |
| 20260901175327 | 88 | 292 | 1.0 | 4.0 | 0.00 | 0.15 | 0.00 | 38 | 1027.0 |
| 20260901174343 | 88 | 279 | 1.0 | 3.0 | 0.00 | 0.15 | 0.00 | 38 | 1027.0 |
| 20260901173334 | 86 | 279 | 2.0 | 5.0 | 0.00 | 0.15 | 0.00 | 40 | 1027.1 |
| 20260901172350 | 86 | 227 | 1.0 | 4.0 | 0.00 | 0.15 | 0.00 | 41 | 1027.1 |
| 20260901171341 | 84 | 227 | 3.0 | 5.0 | 0.00 | 0.15 | 0.00 | 44 | 1027.3 |
| 20260901170347 | 83 | 227 | 2.0 | 8.0 | 0.00 | 0.15 | 0.00 | 45 | 1027.1 |
| 20260901165335 | 84 | 262 | 3.0 | 7.0 | 0.00 | 0.15 | 0.00 | 45 | 1027.1 |
| 20260901164410 | 83 | 349 | 3.0 | 6.0 | 0.00 | 0.15 | 0.00 | 48 | 1027.2 |
| 20260901163337 | 83 | 46 | 3.0 | 4.0 | 0.00 | 0.15 | 0.00 | 51 | 1027.1 |
| 20260901162325 | 82 | 21 | 2.0 | 4.0 | 0.00 | 0.15 | 0.00 | 53 | 1027.1 |
| 20260901161343 | 81 | 43 | 1.0 | 5.0 | 0.00 | 0.15 | 0.00 | 56 | 1027.0 |
| 20260901160351 | 81 | 5 | 3.0 | 5.0 | 0.00 | 0.15 | 0.00 | 56 | 1027.0 |
| 20260901155339 | 81 | 5 | 1.0 | 3.0 | 0.00 | 0.15 | 0.00 | 56 | 1027.0 |
| 20260901154355 | 81 | 23 | 1.0 | 3.0 | 0.00 | 0.15 | 0.00 | 57 | 1027.1 |
| 20260901153350 | 80 | 130 | 0.0 | 4.0 | 0.00 | 0.15 | 0.00 | 58 | 1027.1 |
| 20260901152338 | 79 | 111 | 1.0 | 2.0 | 0.00 | 0.15 | 0.00 | 60 | 1027.1 |
| 20260901151328 | 79 | 111 | 2.0 | 4.0 | 0.00 | 0.15 | 0.00 | 61 | 1027.1 |
| 20260901150335 | 77 | 19 | 1.0 | 2.0 | 0.00 | 0.15 | 0.00 | 64 | 1027.1 |
| 20260901145350 | 76 | 19 | 2.0 | 3.0 | 0.00 | 0.15 | 0.00 | 66 | 1027.1 |
| 20260901144340 | 76 | 19 | 1.0 | 3.0 | 0.00 | 0.15 | 0.00 | 70 | 1027.0 |
| 20260901143331 | 74 | 19 | 2.0 | 4.0 | 0.00 | 0.15 | 0.00 | 72 | 1027.0 |
| 20260901142346 | 73 | 65 | 3.0 | 5.0 | 0.00 | 0.15 | 0.00 | 74 | 1027.0 |
| 20260901141338 | 73 | 65 | 3.0 | 5.0 | 0.00 | 0.15 | 0.00 | 76 | 1026.9 |
| 20260901140342 | 72 | 76 | 3.0 | 6.0 | 0.00 | 0.15 | 0.00 | 76 | 1026.8 |
| 20260901135351 | 71 | 69 | 3.0 | 4.0 | 0.00 | 0.15 | 0.00 | 77 | 1026.7 |
| 20260901134343 | 70 | 194 | 2.0 | 4.0 | 0.00 | 0.15 | 0.00 | 79 | 1026.8 |
| 20260901133332 | 70 | 194 | 4.0 | 8.0 | 0.00 | 0.15 | 0.00 | 79 | 1026.7 |
| 20260901132347 | 69 | 194 | 5.0 | 7.0 | 0.00 | 0.15 | 0.00 | 81 | 1026.5 |
| 20260901131340 | 69 | 217 | 5.0 | 7.0 | 0.00 | 0.15 | 0.00 | 81 | 1026.2 |
| 20260901130347 | 69 | 194 | 6.0 | 9.0 | 0.00 | 0.15 | 0.00 | 81 | 1026.1 |
| 20260901125337 | 69 | 168 | 6.0 | 11.0 | 0.00 | 0.58 | 0.00 | 82 | 1026.1 |
| 20260901124329 | 69 | 181 | 5.0 | 7.0 | 0.00 | 0.58 | 0.00 | 85 | 1026.1 |
| 20260901123346 | 68 | 192 | 6.0 | 8.0 | 0.00 | 0.58 | 0.00 | 86 | 1026.0 |
| 20260901122333 | 69 | 148 | 3.0 | 5.0 | 0.00 | 0.58 | 0.00 | 85 | 1025.8 |
| 20260901121326 | 69 | 61 | 0.0 | 2.0 | 0.00 | 0.58 | 0.00 | 81 | 1025.7 |
| 20260901120357 | 69 | 61 | 2.0 | 4.0 | 0.00 | 0.58 | 0.00 | 82 | 1025.7 |
| 20260901115324 | 69 | 61 | 2.0 | 4.0 | 0.00 | 0.59 | 0.00 | 84 | 1025.8 |
| 20260901114346 | 69 | 61 | 3.0 | 4.0 | 0.00 | 0.59 | 0.00 | 85 | 1025.9 |
| 20260901113339 | 69 | 77 | 4.0 | 6.0 | 0.00 | 0.59 | 0.00 | 85 | 1025.8 |
| 20260901112328 | 68 | 62 | 4.0 | 6.0 | 0.00 | 0.59 | 0.00 | 84 | 1025.8 |
| 20260901111405 | 69 | 62 | 4.0 | 5.0 | 0.00 | 0.59 | 0.00 | 82 | 1025.7 |
| 20260901110331 | 69 | 62 | 4.0 | 5.0 | 0.00 | 0.59 | 0.00 | 81 | 1025.7 |
| 20260901105349 | 70 | 167 | 3.0 | 4.0 | 0.00 | 0.59 | 0.00 | 80 | 1025.6 |
| 20260901104340 | 70 | 167 | 2.0 | 3.0 | 0.00 | 0.59 | 0.00 | 79 | 1025.7 |
| 20260901103330 | 71 | 167 | 3.0 | 3.0 | 0.00 | 0.59 | 0.00 | 77 | 1025.6 |
| 20260901102347 | 70 | 167 | 3.0 | 3.0 | 0.00 | 0.59 | 0.00 | 80 | 1025.5 |
| 20260901101340 | 70 | 167 | 1.0 | 5.0 | 0.00 | 0.59 | 0.00 | 82 | 1025.3 |
| 20260901100331 | 70 | 167 | 3.0 | 4.0 | 0.00 | 0.59 | 0.00 | 83 | 1025.4 |
| 20260901095405 | 70 | 167 | 4.0 | 4.0 | 0.00 | 0.59 | 0.00 | 83 | 1025.4 |
| 20260901094336 | 70 | 167 | 3.0 | 6.0 | 0.00 | 0.59 | 0.00 | 82 | 1025.4 |
| 20260901093333 | 71 | 189 | 4.0 | 6.0 | 0.00 | 0.59 | 0.00 | 80 | 1025.5 |
| 20260901092348 | 71 | 181 | 6.0 | 7.0 | 0.00 | 0.59 | 0.00 | 79 | 1025.4 |
| 20260901091358 | 71 | 188 | 5.0 | 9.0 | 0.00 | 0.59 | 0.00 | 80 | 1025.4 |
| 20260901090407 | 70 | 191 | 4.0 | 7.0 | 0.00 | 0.59 | 0.00 | 84 | 1025.4 |
| 20260901085342 | 70 | 228 | 5.0 | 8.0 | 0.00 | 0.59 | 0.00 | 81 | 1025.5 |
| 20260901084332 | 71 | 227 | 5.0 | 7.0 | 0.00 | 0.59 | 0.00 | 77 | 1025.5 |
| 20260901083350 | 71 | 214 | 5.0 | 6.0 | 0.00 | 0.59 | 0.00 | 75 | 1025.4 |
| 20260901082339 | 72 | 194 | 5.0 | 6.0 | 0.00 | 0.59 | 0.00 | 73 | 1025.5 |
| 20260901081331 | 73 | 194 | 5.0 | 6.0 | 0.00 | 0.59 | 0.00 | 71 | 1025.7 |
| 20260901080341 | 73 | 192 | 5.0 | 7.0 | 0.00 | 0.59 | 0.00 | 69 | 1025.7 |
| 20260901075332 | 73 | 178 | 5.0 | 7.0 | 0.00 | 0.59 | 0.00 | 72 | 1025.7 |
| 20260901074350 | 74 | 51 | 3.0 | 4.0 | 0.00 | 0.59 | 0.00 | 70 | 1025.8 |
| 20260901073343 | 74 | 51 | 1.0 | 2.0 | 0.00 | 0.59 | 0.00 | 70 | 1025.8 |
| 20260901072338 | 74 | 51 | 1.0 | 3.0 | 0.00 | 0.59 | 0.00 | 71 | 1025.8 |
| 20260901071329 | 74 | 51 | 2.0 | 4.0 | 0.00 | 0.59 | 0.00 | 71 | 1025.8 |
| 20260901070357 | 74 | 51 | 3.0 | 4.0 | 0.00 | 0.59 | 0.00 | 72 | 1025.8 |
| 20260901065349 | 74 | 51 | 2.0 | 3.0 | 0.00 | 0.59 | 0.59 | 71 | 1025.8 |
| 20260901064340 | 74 | 51 | 2.0 | 3.0 | 0.00 | 0.59 | 0.59 | 73 | 1025.8 |
| 20260901063331 | 74 | 51 | 2.0 | 4.0 | 0.00 | 0.59 | 0.59 | 72 | 1026.0 |
| 20260901062326 | 74 | 51 | 3.0 | 4.0 | 0.00 | 0.59 | 0.59 | 71 | 1026.1 |
| 20260901061326 | 74 | 51 | 2.0 | 3.0 | 0.00 | 0.59 | 0.59 | 70 | 1026.1 |
| 20260901060336 | 74 | 51 | 2.0 | 3.0 | 0.00 | 0.59 | 0.59 | 69 | 1025.9 |
| 20260901055325 | 75 | 51 | 2.0 | 4.0 | 0.00 | 0.59 | 0.59 | 68 | 1025.9 |
| 20260901054347 | 74 | 51 | 2.0 | 3.0 | 0.00 | 0.59 | 0.59 | 70 | 1025.9 |
| 20260901053344 | 74 | 51 | 3.0 | 4.0 | 0.00 | 0.59 | 0.59 | 72 | 1025.8 |
| 20260901052337 | 73 | 51 | 3.0 | 4.0 | 0.00 | 0.59 | 0.59 | 78 | 1025.9 |
| 20260901051329 | 73 | 51 | 3.0 | 4.0 | 0.00 | 0.59 | 0.59 | 78 | 1025.9 |
| 20260901050405 | 74 | 51 | 4.0 | 5.0 | 0.00 | 0.59 | 0.59 | 76 | 1025.9 |
| 20260901045335 | 74 | 46 | 3.0 | 5.0 | 0.00 | 0.59 | 0.59 | 76 | 1026.0 |
| 20260901044335 | 74 | 72 | 2.0 | 5.0 | 0.00 | 0.59 | 0.59 | 76 | 1025.9 |
| 20260901043325 | 74 | 211 | 3.0 | 6.0 | 0.00 | 0.59 | 0.59 | 76 | 1025.9 |
| 20260901042342 | 75 | 192 | 4.0 | 5.0 | 0.00 | 0.59 | 0.59 | 73 | 1025.9 |
| 20260901041339 | 75 | 136 | 3.0 | 4.0 | 0.00 | 0.59 | 0.59 | 71 | 1026.2 |
| 20260901040345 | 75 | 136 | 2.0 | 5.0 | 0.00 | 0.59 | 0.59 | 72 | 1026.0 |
| 20260901035336 | 75 | 105 | 4.0 | 6.0 | 0.00 | 0.59 | 0.59 | 73 | 1025.8 |
| 20260901034333 | 75 | 105 | 3.0 | 4.0 | 0.00 | 0.59 | 0.59 | 72 | 1026.0 |
| 20260901033411 | 75 | 105 | 4.0 | 9.0 | 0.00 | 0.59 | 0.59 | 71 | 1025.7 |
| 20260901032338 | 76 | 144 | 4.0 | 9.0 | 0.00 | 0.59 | 0.59 | 68 | 1025.7 |
| 20260901031329 | 77 | 137 | 8.0 | 12.0 | 0.00 | 0.59 | 0.59 | 65 | 1025.4 |
| 20260901030336 | 76 | 186 | 7.0 | 10.0 | 0.00 | 0.59 | 0.59 | 65 | 1025.2 |
| 20260901025355 | 76 | 182 | 6.0 | 9.0 | 0.00 | 0.59 | 0.59 | 66 | 1025.3 |
| 20260901024327 | 75 | 169 | 4.0 | 5.0 | 0.00 | 0.59 | 0.59 | 71 | 1025.1 |
| 20260901023343 | 75 | 96 | 2.0 | 4.0 | 0.00 | 0.59 | 0.59 | 74 | 1025.1 |
| 20260901022358 | 75 | 96 | 2.0 | 4.0 | 0.00 | 0.59 | 0.59 | 75 | 1025.1 |
| 20260901021331 | 76 | 161 | 3.0 | 5.0 | 0.00 | 0.59 | 0.59 | 74 | 1024.8 |
| 20260901020347 | 77 | 200 | 1.0 | 4.0 | 0.00 | 0.59 | 0.59 | 65 | 1024.7 |
| 20260901015337 | 77 | 199 | 4.0 | 6.0 | 0.00 | 0.59 | 0.59 | 65 | 1024.2 |
| 20260901014328 | 77 | 151 | 2.0 | 6.0 | 0.00 | 0.59 | 0.59 | 68 | 1024.1 |
| 20260901013348 | 77 | 212 | 0.0 | 2.0 | 0.00 | 0.59 | 0.59 | 70 | 1023.9 |
| 20260901012341 | 77 | 212 | 2.0 | 4.0 | 0.00 | 0.59 | 0.59 | 69 | 1023.9 |
| 20260901011333 | 78 | 217 | 2.0 | 3.0 | 0.00 | 0.59 | 0.59 | 67 | 1023.9 |
| 20260901010343 | 78 | 217 | 0.0 | 2.0 | 0.00 | 0.59 | 0.59 | 67 | 1023.7 |
| 20260901005348 | 79 | 217 | 0.0 | 0.0 | 0.00 | 0.59 | 0.59 | 66 | 1023.7 |
| 20260901004403 | 79 | 251 | 0.0 | 3.0 | 0.00 | 0.59 | 0.59 | 67 | 1023.8 |
| 20260901003336 | 79 | 251 | 2.0 | 3.0 | 0.00 | 0.59 | 0.59 | 66 | 1023.7 |
| 20260901002356 | 79 | 333 | 0.0 | 3.0 | 0.00 | 0.59 | 0.59 | 66 | 1023.6 |
| 20260901001326 | 79 | 333 | 2.0 | 6.0 | 0.00 | 0.59 | 0.59 | 65 | 1023.5 |
| 20260901000400 | 79 | 294 | 3.0 | 7.0 | 0.00 | 0.59 | 0.59 | 65 | 1023.7 |
| 20260831235329 | 79 | 244 | 1.0 | 8.0 | 0.00 | 0.59 | 0.59 | 67 | 1023.8 |
| 20260831234407 | 79 | 234 | 4.0 | 7.0 | 0.00 | 0.59 | 0.59 | 66 | 1023.9 |
| 20260831233336 | 80 | 204 | 4.0 | 7.0 | 0.00 | 0.59 | 0.59 | 60 | 1023.9 |
| 20260831232349 | 80 | 16 | 2.0 | 3.0 | 0.00 | 0.59 | 0.59 | 58 | 1023.8 |
| 20260831231338 | 78 | 16 | 2.0 | 5.0 | 0.00 | 0.59 | 0.59 | 61 | 1023.9 |
| 20260831230343 | 76 | 49 | 2.0 | 4.0 | 0.00 | 0.59 | 0.59 | 70 | 1024.2 |
| 20260831225357 | 74 | 42 | 2.0 | 9.0 | 0.00 | 0.59 | 0.59 | 74 | 1024.4 |